• In Uzbekistan
  • List of Countries
  • For 7 days
  • Water Temperature
  • Satellite Maps
  • Weather Map
  • Weather Widgets
  • user-avatar
    Login

    Hourly Weather Artashat

    Today, 21 September, Thursday

    Time Temperature Precipitation Wind Pressure Humidity
    00:00 +16°C° 0 mm 1 mps 605 mmHg 27%
    01:00 +15°C° 0 mm 1 mps 605 mmHg 28%
    02:00 +15°C° 0 mm 1 mps 605 mmHg 29%
    03:00 +14°C° 0 mm 1 mps 604 mmHg 29%
    04:00 +14°C° 0 mm 1 mps 605 mmHg 29%
    05:00 +14°C° 0 mm 1 mps 605 mmHg 29%
    06:00 +14°C° 0 mm 1 mps 605 mmHg 28%
    07:00 +18°C° 0 mm 1 mps 605 mmHg 25%
    08:00 +20°C° 0 mm 1 mps 606 mmHg 22%
    09:00 +22°C° 0 mm 1 mps 607 mmHg 19%
    10:00 +23°C° 0 mm 1 mps 607 mmHg 18%
    11:00 +25°C° 0 mm 2 mps 607 mmHg 17%
    12:00 +26°C° 0 mm 2 mps 607 mmHg 16%
    13:00 +26°C° 0 mm 2 mps 607 mmHg 16%
    14:00 +26°C° 0 mm 2 mps 607 mmHg 15%
    15:00 +27°C° 0 mm 2 mps 607 mmHg 15%
    16:00 +25°C° 0 mm 2 mps 606 mmHg 16%
    17:00 +24°C° 0 mm 2 mps 606 mmHg 18%
    18:00 +23°C° 0 mm 2 mps 605 mmHg 20%
    19:00 +21°C° 0 mm 2 mps 605 mmHg 21%
    20:00 +20°C° 0 mm 2 mps 605 mmHg 23%
    21:00 +20°C° 0 mm 1 mps 605 mmHg 24%
    22:00 +19°C° 0 mm 1 mps 605 mmHg 26%
    23:00 +18°C° 0 mm 1 mps 604 mmHg 27%

    Tomorrow, 22 September, Friday

    Time Temperature Precipitation Wind Pressure Humidity
    00:00 +16°C° 0 mm 1 mps 604 mmHg 29%
    01:00 +16°C° 0 mm 1 mps 604 mmHg 30%
    02:00 +15°C° 0 mm 1 mps 603 mmHg 31%
    03:00 +15°C° 0 mm 1 mps 603 mmHg 32%
    04:00 +14°C° 0 mm 1 mps 603 mmHg 33%
    05:00 +14°C° 0 mm 1 mps 603 mmHg 34%
    06:00 +13°C° 0 mm 1 mps 603 mmHg 34%
    07:00 +16°C° 0 mm 1 mps 604 mmHg 30%
    08:00 +20°C° 0 mm 1 mps 605 mmHg 26%
    09:00 +21°C° 0 mm 2 mps 605 mmHg 22%
    10:00 +23°C° 0 mm 2 mps 606 mmHg 21%
    11:00 +25°C° 0 mm 2 mps 606 mmHg 19%
    12:00 +26°C° 0 mm 3 mps 606 mmHg 17%
    13:00 +26°C° 0 mm 3 mps 606 mmHg 17%
    14:00 +26°C° 0 mm 3 mps 605 mmHg 16%
    15:00 +27°C° 0 mm 3 mps 605 mmHg 16%
    16:00 +25°C° 0 mm 2 mps 605 mmHg 18%
    17:00 +24°C° 0 mm 2 mps 604 mmHg 21%
    18:00 +22°C° 0 mm 1 mps 603 mmHg 23%
    19:00 +21°C° 0 mm 1 mps 604 mmHg 25%
    20:00 +20°C° 0 mm 1 mps 604 mmHg 28%
    21:00 +19°C° 0 mm 1 mps 604 mmHg 30%
    22:00 +18°C° 0 mm 1 mps 603 mmHg 33%
    23:00 +16°C° 0 mm 1 mps 603 mmHg 35%

    Day after tomorrow, 23 September, Saturday

    Time Temperature Precipitation Wind Pressure Humidity
    00:00 +16°C° 0 mm 1 mps 603 mmHg 38%
    01:00 +15°C° 0 mm 1 mps 603 mmHg 39%
    02:00 +15°C° 0 mm 1 mps 603 mmHg 41%
    03:00 +14°C° 0 mm 1 mps 603 mmHg 43%
    04:00 +14°C° 0 mm 1 mps 603 mmHg 45%
    05:00 +13°C° 0 mm 1 mps 603 mmHg 46%
    06:00 +12°C° 0 mm 1 mps 603 mmHg 48%
    07:00 +15°C° 0 mm 1 mps 604 mmHg 41%
    08:00 +18°C° 0 mm 1 mps 605 mmHg 34%
    09:00 +21°C° 0 mm 1 mps 606 mmHg 27%
    10:00 +22°C° 0 mm 1 mps 606 mmHg 25%
    11:00 +23°C° 0 mm 2 mps 606 mmHg 23%
    12:00 +24°C° 0 mm 2 mps 607 mmHg 20%
    13:00 +24°C° 0 mm 2 mps 606 mmHg 20%
    14:00 +25°C° 0 mm 2 mps 606 mmHg 19%
    15:00 +25°C° 0 mm 2 mps 606 mmHg 18%
    16:00 +24°C° 0 mm 2 mps 606 mmHg 21%
    17:00 +21°C° 0 mm 2 mps 605 mmHg 23%
    18:00 +20°C° 0 mm 1 mps 605 mmHg 26%
    19:00 +19°C° 0 mm 1 mps 605 mmHg 28%
    20:00 +18°C° 0 mm 1 mps 605 mmHg 30%
    21:00 +16°C° 0 mm 1 mps 605 mmHg 33%
    22:00 +16°C° 0 mm 1 mps 605 mmHg 35%
    23:00 +15°C° 0 mm 1 mps 605 mmHg 36%

    24 September, Sunday

    Time Temperature Precipitation Wind Pressure Humidity
    00:00 +14°C° 0 mm 1 mps 605 mmHg 38%
    01:00 +14°C° 0 mm 1 mps 605 mmHg 40%
    02:00 +13°C° 0 mm 1 mps 604 mmHg 42%
    03:00 +13°C° 0 mm 1 mps 604 mmHg 45%
    04:00 +12°C° 0 mm 1 mps 604 mmHg 47%
    05:00 +12°C° 0 mm 1 mps 604 mmHg 50%
    06:00 +11°C° 0 mm 1 mps 604 mmHg 52%
    07:00 +14°C° 0 mm 1 mps 605 mmHg 46%
    08:00 +16°C° 0 mm 2 mps 606 mmHg 40%
    09:00 +18°C° 0 mm 2 mps 607 mmHg 34%
    10:00 +19°C° 0 mm 2 mps 607 mmHg 31%
    11:00 +21°C° 0 mm 2 mps 607 mmHg 27%
    12:00 +23°C° 0 mm 2 mps 608 mmHg 24%
    13:00 +23°C° 0 mm 2 mps 607 mmHg 23%
    14:00 +24°C° 0 mm 2 mps 607 mmHg 21%
    15:00 +24°C° 0 mm 2 mps 607 mmHg 20%
    16:00 +21°C° 0 mm 2 mps 607 mmHg 23%
    17:00 +20°C° 0 mm 2 mps 606 mmHg 27%
    18:00 +19°C° 0 mm 1 mps 606 mmHg 30%
    19:00 +18°C° 0 mm 1 mps 606 mmHg 33%
    20:00 +16°C° 0 mm 1 mps 606 mmHg 36%
    21:00 +16°C° 0 mm 1 mps 606 mmHg 40%
    22:00 +15°C° 0 mm 1 mps 606 mmHg 42%
    23:00 +14°C° 0 mm 1 mps 605 mmHg 45%

    25 September, Monday

    Time Temperature Precipitation Wind Pressure Humidity
    00:00 +14°C° 0 mm 1 mps 605 mmHg 48%
    01:00 +13°C° 0 mm 1 mps 605 mmHg 50%
    02:00 +12°C° 0 mm 1 mps 605 mmHg 52%
    03:00 +12°C° 0 mm 1 mps 604 mmHg 54%
    04:00 +11°C° 0 mm 1 mps 604 mmHg 56%
    05:00 +11°C° 0 mm 1 mps 604 mmHg 57%
    06:00 +10°C° 0 mm 1 mps 604 mmHg 59%
    07:00 +13°C° 0 mm 1 mps 605 mmHg 50%
    08:00 +16°C° 0 mm 1 mps 606 mmHg 40%
    09:00 +19°C° 0 mm 1 mps 607 mmHg 31%
    10:00 +20°C° 0 mm 1 mps 607 mmHg 28%
    11:00 +21°C° 0 mm 2 mps 608 mmHg 24%
    12:00 +23°C° 0 mm 2 mps 608 mmHg 20%
    13:00 +23°C° 0 mm 2 mps 608 mmHg 19%
    14:00 +24°C° 0 mm 2 mps 607 mmHg 18%
    15:00 +24°C° 0 mm 2 mps 607 mmHg 17%
    16:00 +23°C° 0 mm 2 mps 607 mmHg 20%
    17:00 +20°C° 0 mm 2 mps 606 mmHg 23%
    18:00 +19°C° 0 mm 1 mps 605 mmHg 26%
    19:00 +18°C° 0 mm 1 mps 606 mmHg 29%
    20:00 +18°C° 0 mm 1 mps 606 mmHg 32%
    21:00 +16°C° 0 mm 1 mps 606 mmHg 36%
    22:00 +15°C° 0 mm 1 mps 606 mmHg 37%
    23:00 +15°C° 0 mm 1 mps 605 mmHg 38%

    26 September, Tuesday

    Time Temperature Precipitation Wind Pressure Humidity
    00:00 +14°C° 0 mm 1 mps 605 mmHg 39%
    01:00 +14°C° 0 mm 1 mps 605 mmHg 39%
    02:00 +13°C° 0 mm 1 mps 605 mmHg 40%
    03:00 +13°C° 0 mm 1 mps 605 mmHg 40%
    04:00 +13°C° 0 mm 1 mps 605 mmHg 40%
    05:00 +12°C° 0 mm 1 mps 605 mmHg 40%
    06:00 +12°C° 0 mm 1 mps 604 mmHg 40%
    07:00 +14°C° 0 mm 1 mps 605 mmHg 36%
    08:00 +17°C° 0 mm 2 mps 606 mmHg 32%
    09:00 +19°C° 0 mm 2 mps 607 mmHg 27%
    10:00 +21°C° 0 mm 3 mps 607 mmHg 25%
    11:00 +23°C° 0 mm 4 mps 608 mmHg 22%
    12:00 +25°C° 0 mm 4 mps 608 mmHg 20%
    13:00 +26°C° 0 mm 5 mps 608 mmHg 19%
    14:00 +26°C° 0 mm 5 mps 608 mmHg 17%
    15:00 +26°C° 0 mm 6 mps 608 mmHg 16%
    16:00 +25°C° 0 mm 5 mps 607 mmHg 19%
    17:00 +22°C° 0 mm 4 mps 607 mmHg 21%
    18:00 +20°C° 0 mm 2 mps 606 mmHg 24%
    19:00 +19°C° 0 mm 2 mps 606 mmHg 26%
    20:00 +18°C° 0 mm 2 mps 606 mmHg 28%
    21:00 +18°C° 0 mm 1 mps 606 mmHg 30%
    22:00 +16°C° 0 mm 1 mps 605 mmHg 31%
    23:00 +16°C° 0 mm 1 mps 605 mmHg 32%
    Show more